Flag for Germany Weather past 2 weeks in Heide, Schleswig-Holstein, Germany

Now
52 °F

Passing clouds.


Feels Like: 50 °F
Forecast: 42 / 58 °F
Wind: 6 mph from Northwest

Location: Hohn


UV Index: 0 (Low)

Visibility: N/A


Pressure: 30.45 "Hg

Humidity: 32%

Dew point: 23 °F

Location of HeideLocation

Historic Weather in Heide

°F

Heide temperature yesterday

Maximum temperature yesterday: 54 °F (at 3:20 PM)
Minimum temperature yesterday: 36 °F (at 11:20 PM)
Average temperature yesterday: 45 °F

Past Weeks' High & Low Weather Summary

 TemperatureHumidityPressure
High64 °F (Apr 7, 5:20 PM)100% (Apr 3, 7:20 AM)30.45 "Hg (Apr 3, 7:20 AM)
Low28 °F (Apr 16, 5:20 AM)35% (Apr 16, 11:20 AM)29.59 "Hg (Apr 8, 8:46 AM)
Average47 °F82%29.95 "Hg
* Reported Apr 1 11:20 AM — Apr 16 11:20 AM, Heide, Weather by CustomWeather, © 2014

Note: Actual official high and low records may vary slightly from our data, if they occured in-between our weather recording intervals... More about our weather records

Advertising

Historic Weather Conditions — Data for Previous 24 hours

 ConditionsComfort  
Time TempWeatherWind HumidityBarometerVisibility
11:20 AM
Apr 16
50 °FCool.3 mph35%30.45 "HgN/A
10:20 AM48 °FCool.2 mph43%30.45 "HgN/A
9:20 AM45 °FQuite cool.1 mph61%30.45 "HgN/A
8:20 AM37 °FChilly.1 mph75%30.45 "HgN/A
7:20 AM30 °FChilly.No wind93%30.45 "HgN/A
6:20 AM28 °FChilly.1 mph86%30.45 "HgN/A
5:20 AM28 °FPassing clouds.1 mph93%30.42 "HgN/A
4:20 AM30 °FPassing clouds.3 mph86%30.42 "HgN/A
3:20 AM30 °FPassing clouds.3 mph86%30.39 "HgN/A
2:20 AM30 °FChilly.3 mph86%30.39 "HgN/A
12:20 AM34 °FChilly.No wind81%30.36 "HgN/A
11:20 PM
Apr 15
36 °FPassing clouds.1 mph75%30.36 "HgN/A
10:20 PM39 °FPassing clouds.3 mph65%30.33 "HgN/A
9:20 PM43 °FPassing clouds.3 mph57%30.30 "HgN/A
8:20 PM48 °FPassing clouds.6 mph43%30.30 "HgN/A
7:20 PM50 °FPassing clouds.10 mph37%30.27 "HgN/A
6:20 PM50 °FPassing clouds.13 mph40%30.24 "HgN/A
5:20 PM52 °FPassing clouds.12 mph38%30.21 "HgN/A
4:20 PM52 °FPassing clouds.10 mph38%30.21 "HgN/A
3:20 PM54 °FPassing clouds.14 mph38%30.21 "HgN/A
2:20 PM52 °FPassing clouds.14 mph41%30.18 "HgN/A
1:20 PM52 °FPassing clouds.16 mph44%30.18 "HgN/A
Weather by CustomWeather, © 2014

See weather overview